VIASAT 2

Satellite information

Favourite Embed

Satellite Type and Status

PAYLOADIN ORBIT

Key statistics

Satellite VIASAT 2 at a glance.

Uptime

3079

Days in orbit

Revolutions

≈ 1.0

Per day

Orbit

GEO

Geostationary Orbit

Inclination

0.0

Latest

Satellite identification and parameters

Extended collection of information and parameters for VIASAT 2.

Object identification

Identified? True

Debris? False

Object name: VIASAT 2

International designator: 2017-029A

Object number (NORAD): 42740

Object ID (CCSDS): 42740

Country: UNITED STATES OF AMERICA (US)

Current information (Y/N): Y

RCS size: LARGE

Orbital parameters

Period: 1436.102 minutes

Inclination: 0.0191 deg

SMA: 42164.822 km

Apoapsis: 35787.443 km

Periapsis: 35785.932 km

RAAN: 273.1992 deg

Eccentricy: 0.00001791

Argument of periapsis: 238.4124 deg

Mean anomaly: 343.7779 deg

Mean motion: 1.00271462 rev/day

Mean motion (dot): -0.00000253 rev/day2

B* drag term: 0.0 1/REarth

Two-line elements (TLE)

Creation date: Nov. 4, 2025, 5:59 p.m.

Reference frame: TEME

Reference center: EARTH

Epoch: Nov. 4, 2025, 10:45 a.m. UTC

TLE line 0: 0 VIASAT 2

TLE line 1: 1 42740U 17029A 25308.44807727 -.00000253 00000-0 00000-0 0 9994

TLE line 2: 2 42740 0.0191 273.1992 0000179 238.4124 343.7779 1.00271462 30954

Live tracking on map

Real-time ground track for satellite VIASAT 2.

In-orbit conjunctions

There are no conjunctions computed for VIASAT 2, at the moment. Check back to stay up to date, as we update our databases every day.

Go to all conjunctions

Associated space launch

ViaSat-2 is a commercial communications satellite with an estimated capacity of 350 Gbit/s. The satellite will provide satellite internet to North America, parts of South America, the Caribbean, and the Atlantic Ocean. Eutelsat 172B is a communications satellite featuring a C-band, a Ku-band and a high throughput payload and all electric orbital raising. It is to reside in 172° East, where it will provide coverage of the Asia-Pacific.

VIASAT 2 was lifted into orbit during the mission ‘Ariane 5 ECA | ViaSat-2 & EUTELSAT 172B’, on board a Ariane 5 ECA space rocket.

The launch took place on June 1, 2017, 11:45 p.m. from Ariane Launch Area 3.

For more information about the launch, click the button.

Launch to space Ariane 5 ECA | ViaSat-2 & EUTELSAT 172B
Ariane 5 ECA | ViaSat-2 & EUTELSAT 172B

Agency: Eutelsat

Status: Launch Successful

Launch date: June 1, 2017, 11:45 p.m. UTC

Rocket: Ariane 5 ECA

Launch pad: Ariane Launch Area 3

Location: Guiana Space Centre, French Guiana

...

Latest news about this satellite

There are no fresh news available about this satellite. Check back as we update our databases every day.


Newsletter sign-up

Weekly statistics, charts and insights to help you stay on top of the space industry.